Home > Weather > Waterbury > Past weeks

Flag for USA Weather for the Past 2 Weeks in Waterbury, Connecticut, USA

Now
48 °F

Light rain. Overcast.


Feels Like: 45 °F
Forecast: 41 / 56 °F
Wind: 7 mph from Southwest

Location: Oxford

Current Time: Apr 28, 2016 at 9:00:31 PM

Latest Report: Apr 28, 2016 at 7:50 PM


Visibility: 10 mi

Pressure: 30.05 "Hg

Humidity: 62%

Dew Point: 36 °F

Location of WaterburyLocation

Historic Weather in Waterbury — Graph

°F

Waterbury Temperature Yesterday

Maximum temperature yesterday: 59 °F (at 4:52 PM)
Minimum temperature yesterday: 36 °F (at 4:55 AM)
Average temperature yesterday: 46 °F

High & Low Weather Summary for the Past Weeks

 TemperatureHumidityPressure
High75 °F (Apr 18, 2:50 PM)94% (Apr 23, 5:15 AM)30.48 "Hg (Apr 23, 5:15 AM)
Low30 °F (Apr 15, 5:15 AM)15% (Apr 16, 6:50 PM)29.70 "Hg (Apr 26, 11:50 AM)
Average50 °F50%30.12 "Hg
* Reported Apr 13 6:52 PM — Apr 28 6:50 PM, Waterbury, Weather by CustomWeather, © 2016

Note: Actual official high and low records may vary slightly from our data, if they occured in-between our weather recording intervals... More about our weather records

Advertising

Waterbury Weather History for the Previous 24 Hours

Scroll right to see more
 ConditionsComfort  
Time TempWeatherWind HumidityBarometerVisibility
6:50 PM
Thu, Apr 28
50 °FOvercast.9 mph54%30.04 "Hg10 mi
5:50 PM50 °FOvercast.9 mph54%30.04 "Hg10 mi
4:50 PM54 °FOvercast.9 mph28%30.01 "Hg10 mi
3:50 PM54 °FMostly cloudy.9 mph33%30.01 "Hg10 mi
1:50 PM57 °FPartly sunny.5 mph21%30.01 "Hg10 mi
12:50 PM55 °FPartly sunny.7 mph23%30.04 "Hg10 mi
11:50 AM55 °FPartly sunny.6 mph26%30.05 "Hg10 mi
10:50 AM50 °FPartly sunny.5 mph30%30.06 "Hg10 mi
9:50 AM48 °FPartly sunny.7 mph32%30.07 "Hg10 mi
8:55 AM46 °FScattered clouds.8 mph40%30.07 "Hg10 mi
7:50 AM45 °FScattered clouds.9 mph39%30.05 "Hg10 mi
6:50 AM39 °FPassing clouds.14 mph45%30.03 "Hg10 mi
5:55 AM36 °FChilly.8 mph48%30.02 "Hg10 mi
5:35 AM39 °FChilly.8 mph39%30.02 "Hg10 mi
5:15 AM41 °FQuite cool.12 mph36%30.00 "Hg10 mi
4:35 AM41 °FQuite cool.14 mph36%29.98 "Hg10 mi
3:35 AM41 °FQuite cool.10 mph36%29.97 "Hg10 mi
3:15 AM39 °FChilly.10 mph45%29.96 "Hg10 mi
1:55 AM43 °FQuite cool.3 mph42%29.94 "Hg10 mi
1:15 AM45 °FQuite cool.8 mph42%29.94 "Hg10 mi
12:55 AM45 °FQuite cool.10 mph49%29.94 "Hg10 mi
11:55 PM
Wed, Apr 27
45 °FQuite cool.No wind81%29.92 "Hg10 mi
11:35 PM45 °FQuite cool.5 mph76%29.92 "Hg10 mi
10:55 PM46 °FCool.No wind76%29.90 "Hg10 mi
10:15 PM48 °FCool.7 mph71%29.89 "Hg10 mi
9:55 PM48 °FCool.6 mph71%29.89 "Hg10 mi
9:15 PM48 °FCool.6 mph71%29.88 "Hg10 mi
Weather by CustomWeather, © 2016

See weather overviewHow to use our weather pages